RH
40 38 35 34 34 35 38 38 37 35 34 32 31 33 35 39 44 47 45 42 32 22 14 11 10 9 10
44 45 42 42 39 37 38 37 37 38 38 35 33 31 29 29 30 31 32 34 39 44 45 46 45 38 28
47 46 49 49 48 45 43 45 44 41 40 40 38 36 33 32 29 28 26 26 26 27 27 29 30 33 39
59 53 50 49 52 53 52 49 50 49 49 46 45 44 41 41 40 38 35 33 30 27 26 25 24 24 25
71 66 59 56 52 57 57 61 56 53 53 53 52 51 51 50 47 46 47 46 44 42 39 37 34 30 27
82 77 71 66 63 60 64 68 66 68 65 63 60 57 56 58 57 56 52 51 49 46 44 41 39 37 35
79 72 75 82 79 69 69 72 77 77 73 71 67 65 62 58 58 56 54 51 48 46 44 41 39 37 36
98 88 92 93 91 84 81 80 81 80 82 78 75 70 66 61 58 54 52 48 45 43 43 43 43 43 42
100 98 99 98 97 96 95 98 95 92 87 76 65 57 43 35 31 30 30 30 31 30 30 30 29 28 27
96 99 100 98 98 95 98 97 96 90 80 66 36 25 28 34 41 40 37 34 31 28 25 22 19 18 18
94 92 95 98 96 96 97 96 95 90 50 25 22 29 39 41 37 30 24 18 13 11 10 8 8 7 6
97 94 97 98 97 96 96 85 57 29 22 22 28 37 42 42 35 18 12 11 10 12 11 10 8 6 5
98 97 98 98 98 97 97 94 47 33 32 37 40 50 48 41 23 11 11 14 14 13 11 10 9 8 8
92 98 98 98 99 98 96 96 95 66 52 60 70 64 42 18 13 12 14 24 16 15 14 13 12 11 9
75 95 97 97 97 98 97 97 96 97 98 98 96 84 37 16 14 15 17 19 16 19 23 14 10 11 13
95 73 75 92 96 96 97 97 96 97 97 93 75 71 66 51 44 35 30 22 24 26 28 24 15 22 24
97 97 94 99 100 100 99 99 98 98 97 95 96 93 78 66 50 42 36 38 39 36 34 34 31 29 31
Wind_Speed
32 30 29 28 27 27 27 27 25 24 23 22 22 21 21 21 21 22 23 24 24 25 26 26 27 28 29
32 33 32 31 31 29 28 28 29 28 27 25 23 23 23 23 22 23 24 24 24 26 27 27 28 29 30
33 35 35 32 32 31 30 29 29 30 30 29 28 26 24 25 25 25 25 26 26 26 26 27 28 29 29
38 36 37 35 35 32 32 33 31 31 31 32 32 31 31 30 29 28 28 28 28 28 28 28 28 28 28
42 40 39 38 37 36 36 34 34 33 33 33 33 34 33 32 32 32 30 30 30 30 30 30 30 30 30
43 43 42 41 41 39 38 35 36 34 33 33 34 34 34 34 33 32 33 32 30 30 30 30 30 31 30
47 46 45 42 44 44 40 39 36 38 34 33 34 33 35 34 34 33 33 33 33 33 33 33 33 32 32
52 51 49 48 47 49 44 43 41 40 36 35 34 33 34 33 34 34 33 32 31 32 33 33 34 34 34
52 53 54 51 49 50 47 43 41 39 36 36 32 32 32 32 33 33 33 33 34 34 35 35 35 36 36
52 52 51 55 51 49 46 44 41 39 38 37 33 34 34 34 33 33 35 37 39 39 39 39 38 38 38
49 49 49 51 52 45 41 40 39 38 39 38 36 36 37 36 36 36 37 37 38 38 38 38 39 39 40
42 45 46 48 48 41 35 38 39 40 39 39 38 38 38 38 39 38 37 36 37 37 37 37 38 39 40
36 33 34 34 41 37 39 38 37 38 39 40 40 39 40 42 41 40 38 37 37 38 38 37 38 38 39
32 34 32 31 33 39 39 39 39 39 35 35 38 39 41 42 42 41 41 40 37 38 38 37 40 42 42
31 29 33 38 39 37 41 45 48 49 46 45 40 38 39 39 40 40 40 40 38 35 33 37 41 41 40
33 34 31 31 35 36 33 36 35 33 34 38 34 32 33 37 37 37 37 37 33 30 32 36 39 35 37
30 32 31 29 27 34 37 37 36 36 33 29 31 32 33 34 32 32 33 32 32 33 33 33 36 36 36
Wind_Direction
289 287 285 282 281 283 283 280 275 273 270 263 265 264 260 260 258 256 257 257 256 254 252 252 251 251 248
289 286 283 280 279 277 277 277 278 277 273 269 264 261 264 263 260 258 257 257 255 255 255 254 255 254 254
288 286 284 280 278 278 276 274 274 273 274 272 269 266 260 256 258 260 258 256 256 256 254 254 254 255 254
286 285 282 282 279 277 274 273 271 269 268 269 270 267 264 264 261 257 256 257 257 257 255 256 256 256 257
280 280 280 279 279 277 274 272 272 269 268 266 266 267 268 265 263 264 263 259 256 254 253 253 253 253 252
277 278 279 280 278 274 273 271 268 267 265 264 262 262 263 264 264 260 260 259 258 257 255 253 252 252 252
275 277 277 276 275 272 269 266 266 266 260 259 259 257 258 258 258 259 258 256 256 257 256 255 255 255 255
272 273 270 267 266 268 267 265 262 262 264 261 256 253 252 252 255 258 259 259 257 256 256 257 258 257 257
270 271 268 262 261 261 261 262 261 261 258 255 248 247 246 246 248 252 257 260 262 263 263 262 262 261 260
265 264 265 262 254 254 255 254 255 254 252 253 249 247 244 244 248 252 254 256 259 261 263 264 265 265 265
269 268 266 264 255 249 251 250 249 250 252 250 248 248 252 255 252 252 254 256 255 255 256 259 261 263 263
271 270 268 263 253 247 248 251 252 252 252 253 253 255 258 261 263 263 261 259 256 255 255 256 257 258 260
266 268 263 264 252 242 242 245 252 251 252 255 255 256 262 264 267 267 265 262 262 263 263 263 261 260 258
273 251 248 254 259 250 242 241 243 244 247 257 261 265 265 265 265 264 264 265 266 266 267 267 268 267 266
282 277 266 257 257 254 255 253 253 254 257 258 259 261 263 264 264 264 265 265 266 267 268 269 269 270 270
276 273 280 270 268 268 270 263 257 256 253 254 249 250 257 261 265 268 268 268 266 265 266 267 267 270 271
277 274 270 267 264 260 265 261 262 263 258 257 260 257 258 260 263 261 264 264 267 270 272 274 274 271 270